ECMPU LEMH-LIEE

Flight info

Callsign ECMPU
Flight time N/A
Altitude 19000
Route ML01 DCT ORFEO DCT EDINO DCT ESUPO
Aircraft B58T/L-SDFGRY/C

Departure

Time 2026-04-28 13:31
Airport Menorca Airport (LEMH)

Arrival

Time N/A
Airport Cagliari Elmas Airport (LIEE)
Time Latitude Longitude Altitude Speed Heading
2026-04-28 13:17 39.86119 4.22255 281 ft 0 kts
2026-04-28 13:26 39.86123 4.22259 281 ft 4 kts 54°
2026-04-28 13:27 39.86167 4.22289 281 ft 10 kts 335°
2026-04-28 13:27 39.86192 4.22145 286 ft 21 kts 275°
2026-04-28 13:27 39.86094 4.22071 290 ft 24 kts 189°
2026-04-28 13:27 39.85882 4.22027 292 ft 35 kts 188°
2026-04-28 13:28 39.85626 4.21974 283 ft 34 kts 190°
2026-04-28 13:28 39.85412 4.21930 277 ft 33 kts 188°
2026-04-28 13:28 39.85192 4.21883 275 ft 29 kts 188°
2026-04-28 13:28 39.85131 4.21774 278 ft 0 kts 279°
2026-04-28 13:30 39.85139 4.21719 279 ft 12 kts 281°
2026-04-28 13:30 39.85185 4.21647 280 ft 13 kts 359°
2026-04-28 13:30 39.85504 4.21711 284 ft 87 kts
2026-04-28 13:30 39.86252 4.21875 468 ft 119 kts 13°
2026-04-28 13:31 39.87808 4.22219 1590 ft 113 kts 14°
2026-04-28 13:31 39.88604 4.22384 1878 ft 123 kts 17°
2026-04-28 13:31 39.89373 4.22860 2186 ft 120 kts 34°
2026-04-28 13:32 39.90066 4.23460 2495 ft 121 kts 44°
2026-04-28 13:32 39.90226 4.24469 2717 ft 125 kts 107°
2026-04-28 13:32 39.89969 4.25506 3139 ft 119 kts 109°
2026-04-28 13:32 39.89707 4.26566 3388 ft 125 kts 107°
2026-04-28 13:33 39.89469 4.27655 3632 ft 127 kts 106°
2026-04-28 13:33 39.89234 4.28763 3888 ft 128 kts 106°
2026-04-28 13:33 39.89002 4.29885 4152 ft 129 kts 105°
2026-04-28 13:33 39.88768 4.31025 4497 ft 134 kts 105°
2026-04-28 13:34 39.88519 4.32246 4858 ft 144 kts 105°
2026-04-28 13:34 39.88263 4.33503 5302 ft 143 kts 105°
2026-04-28 13:34 39.88003 4.34757 5755 ft 143 kts 109°
2026-04-28 13:34 39.87587 4.35935 6205 ft 144 kts 115°
2026-04-28 13:35 39.87177 4.37124 6659 ft 144 kts 114°
2026-04-28 13:35 39.86772 4.38325 7106 ft 146 kts 114°
2026-04-28 13:35 39.86361 4.39531 7557 ft 146 kts 114°
2026-04-28 13:35 39.85945 4.40741 8008 ft 147 kts 115°
2026-04-28 13:36 39.85527 4.41952 8458 ft 147 kts 115°
2026-04-28 13:36 39.85104 4.43172 8909 ft 148 kts 115°
2026-04-28 13:36 39.84681 4.44395 9359 ft 148 kts 115°
2026-04-28 13:36 39.84257 4.45620 9811 ft 149 kts 115°
2026-04-28 13:37 39.83829 4.46855 10262 ft 150 kts 116°
2026-04-28 13:37 39.83397 4.48099 10712 ft 151 kts 116°
2026-04-28 13:37 39.82988 4.49368 11165 ft 153 kts 108°
2026-04-28 13:37 39.82804 4.50744 11618 ft 156 kts 99°
2026-04-28 13:38 39.82660 4.52145 12067 ft 157 kts 100°
2026-04-28 13:38 39.82510 4.53559 12518 ft 159 kts 100°
2026-04-28 13:38 39.82359 4.54991 12970 ft 161 kts 100°
2026-04-28 13:38 39.82207 4.56437 13422 ft 162 kts 100°
2026-04-28 13:39 39.82054 4.57895 13874 ft 163 kts 100°
2026-04-28 13:39 39.81899 4.59365 14325 ft 165 kts 101°
2026-04-28 13:39 39.81743 4.60846 14774 ft 166 kts 101°
2026-04-28 13:39 39.81587 4.62333 15226 ft 167 kts 101°
2026-04-28 13:40 39.81429 4.63834 15686 ft 168 kts 101°
2026-04-28 13:40 39.81270 4.65334 16127 ft 168 kts 101°
2026-04-28 13:40 39.81111 4.66841 16577 ft 168 kts 101°
2026-04-28 13:40 39.80952 4.68349 17028 ft 168 kts 102°
2026-04-28 13:41 39.80792 4.69856 17478 ft 168 kts 102°
2026-04-28 13:41 39.80632 4.71361 17933 ft 168 kts 102°
2026-04-28 13:41 39.80472 4.72863 18379 ft 167 kts 102°
2026-04-28 13:41 39.80314 4.74361 18833 ft 167 kts 102°
2026-04-28 13:42 39.80140 4.75937 18957 ft 188 kts 102°
2026-04-28 13:42 39.79946 4.77663 18979 ft 197 kts 102°
2026-04-28 13:42 39.79751 4.79458 18985 ft 204 kts 101°
2026-04-28 13:42 39.79554 4.81306 18986 ft 209 kts 101°
2026-04-28 13:43 39.79352 4.83192 18987 ft 212 kts 101°
2026-04-28 13:43 39.79147 4.85106 18985 ft 215 kts 101°
2026-04-28 13:43 39.78940 4.87039 18985 ft 217 kts 101°
2026-04-28 13:43 39.78729 4.89000 18987 ft 222 kts 101°
2026-04-28 13:44 39.78516 4.90986 18987 ft 222 kts 101°
2026-04-28 13:44 39.78303 4.92972 18988 ft 222 kts 101°
2026-04-28 13:44 39.78090 4.94956 18987 ft 223 kts 101°
2026-04-28 13:44 39.77870 4.96977 18991 ft 228 kts 101°
2026-04-28 13:45 39.77646 4.99036 18990 ft 232 kts 101°
2026-04-28 13:45 39.77418 5.01124 18989 ft 234 kts 101°
2026-04-28 13:45 39.77188 5.03231 18989 ft 236 kts 101°
2026-04-28 13:45 39.76956 5.05355 18988 ft 238 kts 100°
2026-04-28 13:46 39.76724 5.07486 18988 ft 239 kts 100°
2026-04-28 13:46 39.76489 5.09625 18991 ft 239 kts 100°
2026-04-28 13:46 39.76254 5.11768 18988 ft 240 kts 100°
2026-04-28 13:46 39.76017 5.13916 18988 ft 240 kts 100°
2026-04-28 13:47 39.75779 5.16068 18988 ft 241 kts 100°
2026-04-28 13:47 39.75542 5.18218 18989 ft 241 kts 100°
2026-04-28 13:47 39.75303 5.20374 18989 ft 241 kts 100°
2026-04-28 13:47 39.75063 5.22531 18991 ft 241 kts 100°
2026-04-28 13:48 39.74824 5.24688 18989 ft 241 kts 100°
2026-04-28 13:48 39.74585 5.26844 18990 ft 241 kts 100°
2026-04-28 13:48 39.74344 5.29000 18992 ft 241 kts 100°
2026-04-28 13:48 39.74103 5.31156 18991 ft 241 kts 100°
2026-04-28 13:49 39.73861 5.33312 18989 ft 241 kts 100°
2026-04-28 13:49 39.73619 5.35469 18989 ft 241 kts 100°
2026-04-28 13:49 39.73377 5.37624 18990 ft 241 kts 100°
2026-04-28 13:49 39.73135 5.39779 18990 ft 241 kts 100°
2026-04-28 13:50 39.72892 5.41934 18989 ft 241 kts 100°
2026-04-28 13:50 39.72648 5.44090 18989 ft 241 kts 99°
2026-04-28 13:50 39.72405 5.46246 18989 ft 241 kts 99°
2026-04-28 13:50 39.72161 5.48398 18989 ft 241 kts 99°
2026-04-28 13:51 39.71916 5.50556 18989 ft 241 kts 99°
2026-04-28 13:51 39.71672 5.52711 18989 ft 241 kts 99°
2026-04-28 13:51 39.71427 5.54865 18989 ft 241 kts 99°
2026-04-28 13:51 39.71182 5.57015 18989 ft 241 kts 99°
2026-04-28 13:52 39.70935 5.59170 18989 ft 241 kts 99°